Temperature
22 21 21 20 20 19 19 18 18 17 17 16 16 15 15 14 14 14 13 13 13 13 13 13 13 13 13 13 13 13 13 14 14 14 14 14 15 15 15 15 16 16 16
22 21 21 20 20 20 19 19 18 17 17 16 16 15 15 14 14 14 13 13 13 13 13 13 13 13 13 13 13 13 13 13 13 14 14 14 14 15 15 15 15 16 16
22 22 21 21 20 20 19 19 18 17 17 16 16 15 15 14 14 14 13 13 13 13 13 13 13 13 12 13 13 13 13 13 13 13 14 14 14 15 15 15 15 15 16
22 22 21 21 21 20 19 19 18 17 17 16 16 15 15 14 14 14 13 13 13 13 13 13 13 12 12 12 12 13 13 13 13 13 14 14 14 14 14 15 15 15 15
22 22 22 21 21 20 19 19 18 17 17 16 16 15 15 14 14 14 13 13 13 13 13 13 12 12 12 12 12 13 13 13 13 13 13 14 14 14 14 14 15 15 15
22 22 22 21 21 20 19 19 18 17 17 16 16 15 15 14 14 14 14 13 13 13 13 13 13 13 12 12 12 12 13 13 13 13 13 13 14 14 14 14 14 14 15
22 22 21 21 21 20 19 19 18 18 17 16 16 15 15 15 14 14 14 13 13 13 13 13 13 13 13 13 13 13 13 13 13 13 13 13 13 14 14 14 14 14 14
22 22 22 21 21 20 20 19 18 18 17 17 16 16 15 15 14 14 14 14 13 13 13 13 13 13 13 13 13 13 13 13 13 13 13 13 13 13 13 14 14 14 14
21 22 22 21 21 20 20 19 19 18 17 17 16 16 15 15 14 14 14 14 13 13 13 13 13 13 13 13 13 13 13 12 13 13 13 13 13 13 13 13 13 13 13
21 21 21 21 21 20 20 19 18 18 17 17 16 16 15 15 15 14 14 14 14 13 13 13 13 13 13 13 13 13 13 13 12 12 12 13 13 13 13 13 13 13 13
21 21 21 21 20 20 19 19 18 18 17 17 16 16 16 15 15 14 14 14 14 14 13 13 13 13 13 13 13 13 13 13 13 12 12 13 13 13 13 13 13 13 13
20 20 20 20 20 20 19 19 18 18 17 17 16 16 16 15 15 15 14 14 14 14 14 13 13 13 13 13 13 13 13 13 13 13 12 12 12 12 13 13 13 13 13
19 19 19 19 19 19 19 19 18 18 17 17 17 16 16 15 15 15 14 14 14 14 14 13 13 13 13 13 13 13 13 13 13 13 13 13 12 12 12 12 13 13 13
18 19 19 19 19 19 19 18 18 18 17 17 17 16 16 16 15 15 15 14 14 14 14 14 14 13 13 13 13 13 13 13 13 13 13 13 13 13 12 12 12 12 12
18 18 18 18 18 18 18 18 18 18 17 17 17 17 16 16 15 15 15 14 14 14 14 14 14 13 13 13 13 13 13 13 13 13 13 13 13 13 13 12 12 12 12
17 17 17 18 18 18 18 18 18 18 17 17 17 17 16 16 16 15 15 15 14 14 14 14 14 14 13 13 13 13 13 13 13 13 13 13 13 13 13 12 12 12 12
16 17 17 17 17 17 17 18 18 18 17 17 17 16 16 16 16 15 15 15 15 14 14 14 14 14 13 13 13 13 13 13 13 12 12 12 12 12 12 12 12 12 12
16 16 17 17 17 17 17 17 17 17 17 17 16 16 16 16 16 15 15 15 15 14 14 14 14 14 14 13 13 13 13 12 12 12 12 12 12 12 12 12 12 12 12
15 15 16 16 16 16 17 17 17 16 16 16 16 16 16 16 16 15 15 15 15 15 14 14 14 14 14 13 13 13 12 12 12 12 12 12 12 12 12 12 12 12 12
15 15 15 15 16 16 16 16 16 16 16 16 16 16 16 16 15 15 15 15 15 15 14 14 14 14 13 13 13 13 12 12 12 12 12 12 11 11 11 11 11 11 11
14 15 15 15 15 15 15 15 15 15 15 15 15 15 15 15 15 15 15 15 15 15 14 14 14 14 13 13 13 13 12 12 12 12 12 11 11 11 11 11 11 11 11
14 14 14 14 14 14 14 14 14 14 15 15 15 15 15 15 15 15 15 15 15 14 14 14 14 14 13 13 13 13 12 12 12 12 12 11 11 11 11 11 11 10 10
13 13 13 13 13 13 13 13 14 14 14 14 14 15 14 14 14 14 14 14 14 14 14 14 14 14 13 13 13 12 12 12 12 12 11 11 11 10 10 10 10 10 10
12 12 12 12 12 13 13 13 13 13 13 14 14 14 14 14 14 14 14 14 14 14 14 14 14 14 13 13 13 13 12 12 12 11 11 11 10 10 10 10 10 10 10
11 11 11 11 11 12 12 12 12 12 12 13 13 13 13 13 13 13 14 14 14 13 13 14 14 14 14 13 13 13 12 12 12 11 11 10 10 10 10 9 9 9 9
10 10 10 10 10 11 11 11 11 11 11 12 12 12 12 13 13 13 13 13 13 13 13 13 13 13 13 13 13 12 12 12 11 11 10 10 10 10 9 9 9 9 9
Wind_Speed
9 6 7 7 7 7 7 7 7 5 4 3 2 2 0 1 1 2 2 3 3 3 2 1 2 2 2 2 2 1 1 2 1 1 2 3 2 2 1 1 1 1 1
6 6 7 8 8 9 8 8 7 7 5 3 2 2 2 1 1 2 2 3 3 3 2 1 1 2 1 2 2 1 1 1 2 2 2 2 3 3 2 2 1 1 1
10 9 8 9 8 9 10 9 8 7 6 4 3 3 2 2 2 2 2 3 3 3 2 2 1 1 1 2 2 1 0 1 1 1 2 2 1 2 2 2 2 2 1
8 8 9 10 11 10 9 8 8 7 6 5 4 4 3 2 2 2 2 3 3 3 3 2 2 1 1 2 2 0 0 1 0 1 1 1 2 1 1 2 2 2 2
7 9 10 11 9 8 8 8 7 7 6 5 6 5 3 2 1 1 2 3 3 3 3 2 1 1 1 1 2 1 0 1 1 1 0 1 1 1 2 1 2 3 2
5 6 6 6 6 7 7 7 8 7 6 6 5 6 5 4 2 1 2 2 3 3 3 2 1 1 1 1 1 1 0 0 1 1 1 1 1 1 1 1 0 1 2
3 5 7 8 8 9 8 8 8 7 7 6 6 6 6 5 4 3 3 2 2 2 3 2 2 2 2 1 1 0 0 0 1 1 1 1 1 1 2 2 1 1 2
3 5 7 8 8 9 8 9 9 8 7 7 7 5 5 4 4 4 3 3 3 4 4 2 2 2 1 1 0 0 0 0 0 1 1 0 0 1 1 2 2 1 2
4 4 5 6 7 8 9 9 9 8 8 8 7 6 6 5 5 4 3 3 3 3 3 2 2 1 1 0 0 0 0 0 0 0 0 0 1 0 1 1 2 3 1
5 3 3 5 6 7 7 7 8 8 7 7 7 6 6 6 5 4 4 4 4 3 2 2 2 1 1 0 1 0 1 0 0 0 0 0 1 0 0 1 1 2 3
5 4 3 3 3 4 5 6 7 6 6 7 7 6 6 6 5 5 5 4 4 3 3 3 2 2 2 1 1 1 0 0 1 1 0 1 0 0 0 1 1 1 2
5 4 3 2 1 2 4 6 6 6 7 7 6 7 6 5 5 6 6 5 4 4 4 3 3 3 2 2 2 2 2 2 1 1 1 1 0 0 0 1 1 1 2
7 6 5 3 2 2 3 5 6 7 6 6 7 6 6 6 7 7 6 5 4 4 3 3 3 4 3 3 3 3 3 3 3 2 2 2 1 1 1 1 1 1 1
8 8 6 5 4 3 3 4 5 6 6 6 7 7 8 8 8 7 6 5 5 4 4 4 4 4 3 3 3 3 3 3 3 2 3 3 3 3 3 2 2 2 2
11 9 8 6 5 5 4 4 5 5 5 6 7 9 8 7 6 6 6 5 5 5 5 4 4 3 3 4 4 4 4 3 3 2 3 3 4 5 5 3 3 3 2
11 10 9 8 7 6 5 4 4 4 4 6 7 7 6 6 7 7 6 5 5 5 4 5 5 4 4 6 7 5 4 3 3 3 2 2 2 3 4 4 5 6 5
10 10 9 8 7 6 5 5 5 3 4 6 6 6 6 7 8 7 6 7 6 5 5 5 5 5 6 7 6 7 5 4 3 3 2 2 2 2 2 2 3 3 4
10 10 10 9 8 6 5 4 3 2 3 5 5 5 6 7 7 7 8 8 6 6 6 6 6 5 6 7 6 6 4 3 3 3 3 3 2 2 3 3 2 1 1
8 8 8 8 8 7 6 4 3 2 3 5 5 6 6 7 7 8 9 7 6 6 6 5 6 6 6 7 7 6 3 3 3 2 3 3 3 4 5 5 4 2 1
8 9 9 8 9 8 5 4 4 4 5 7 7 6 6 7 8 9 8 6 6 8 7 6 6 7 7 8 8 8 4 3 3 2 2 3 4 5 5 5 5 4 2
9 9 9 9 9 9 5 5 5 6 8 7 6 5 5 7 7 7 6 6 7 6 6 6 6 6 7 8 9 9 5 5 4 3 2 2 4 4 5 5 4 5 4
10 10 9 9 9 8 7 7 8 9 7 6 6 6 6 6 5 5 5 6 7 7 7 6 5 5 5 7 8 10 10 8 6 5 3 3 5 5 5 4 5 6 5
9 9 9 10 10 8 7 9 10 9 7 6 6 6 6 5 5 5 5 4 6 7 7 7 7 6 5 6 10 11 11 11 6 5 6 6 6 5 3 4 6 5 4
9 9 9 11 12 10 9 9 10 9 7 7 7 6 5 5 5 5 5 5 7 8 8 8 8 7 6 6 5 5 7 9 7 5 6 7 6 5 4 4 4 3 4
8 8 9 10 12 12 11 11 10 8 8 8 7 6 6 6 6 6 6 7 8 9 10 10 9 9 9 12 14 10 8 8 8 7 4 3 3 3 3 2 3 3 3
8 8 9 10 11 12 12 12 10 8 8 8 7 6 6 6 5 5 6 8 8 12 14 13 12 10 12 13 17 17 15 14 15 9 5 5 5 5 5 4 3 2 3
Wind_Direction
227 203 185 172 161 161 163 166 160 157 144 127 126 122 178 302 318 314 329 343 345 351 358 342 340 349 355 329 325 322 347 356 355 45 20 360 2 13 352 332 5 327 279
215 198 181 172 174 175 176 175 173 170 171 162 152 155 157 223 265 298 326 334 338 338 330 325 323 332 336 347 352 7 7 0 30 85 82 18 359 352 360 7 20 326 309
211 200 187 184 180 184 185 185 182 178 176 158 122 88 61 30 6 335 321 321 327 333 334 320 310 322 329 321 318 335 81 14 2 49 121 130 218 312 337 357 8 347 359
210 198 189 189 194 193 184 179 178 177 174 162 160 153 156 191 240 260 285 306 325 332 332 324 314 316 318 315 307 44 183 140 3 356 35 123 159 151 343 339 352 0 14
212 205 199 197 194 183 178 176 173 178 176 175 172 161 168 197 237 279 300 313 321 324 326 325 321 327 311 301 319 358 89 150 168 160 91 64 61 86 132 345 341 355 356
222 211 195 182 182 176 174 171 174 185 182 181 176 177 182 188 201 264 290 301 309 311 317 318 314 309 300 295 294 300 134 132 145 141 140 144 136 154 135 152 346 341 326
219 203 191 189 188 184 181 178 181 191 190 188 192 194 194 191 202 221 238 260 286 290 292 302 295 290 283 284 297 13 59 158 142 157 167 163 189 176 152 138 133 10 328
255 222 208 200 195 191 185 183 189 197 195 198 205 203 198 196 212 220 224 235 244 259 276 281 278 282 293 304 28 319 289 135 148 176 160 148 245 180 165 158 144 65 1
293 257 223 204 198 195 194 192 193 201 202 203 204 206 207 208 218 228 227 238 248 258 269 273 279 282 284 288 107 68 325 111 129 165 154 192 294 206 176 158 154 149 132
318 288 244 216 207 203 198 190 194 203 207 205 207 209 210 214 218 222 231 240 250 256 265 271 267 270 273 256 133 262 299 86 294 193 119 259 284 305 129 143 146 158 164
318 305 284 248 217 200 192 197 202 206 209 208 212 214 215 213 213 222 234 237 243 243 242 243 239 243 250 232 181 216 182 152 316 324 193 277 247 138 78 136 140 154 160
338 338 338 342 285 220 212 211 211 213 218 211 210 217 220 211 214 228 236 233 238 242 235 231 226 235 236 222 210 232 220 208 238 260 244 273 237 171 125 145 157 173 180
2 5 8 359 323 271 240 227 221 223 223 209 208 216 219 214 220 228 232 227 229 236 234 219 224 231 229 221 224 223 226 223 228 226 220 239 206 218 209 189 191 193 166
8 6 357 346 331 306 272 248 240 229 222 212 211 218 221 219 222 224 222 221 220 223 226 220 222 223 222 219 221 217 216 224 230 226 219 223 212 215 205 200 203 179 145
4 358 348 338 334 329 307 278 260 239 221 214 219 227 226 220 219 220 221 219 217 223 221 219 224 226 225 225 218 214 214 217 228 232 230 233 227 221 207 196 190 172 162
354 348 344 341 336 324 312 297 276 252 217 218 229 231 223 218 217 218 217 215 218 221 215 218 221 230 239 240 224 208 207 211 210 225 239 248 249 232 214 206 191 178 172
346 343 338 329 319 313 301 291 278 258 223 228 235 230 223 223 223 219 212 213 217 214 215 222 220 230 242 241 229 212 194 201 210 215 224 241 222 204 182 183 177 185 193
345 340 336 331 322 317 316 303 303 276 246 245 248 240 229 230 226 216 218 220 213 209 217 223 221 227 238 229 215 198 184 189 206 209 207 209 227 198 169 150 131 129 156
332 328 326 324 326 327 323 323 314 297 279 267 262 252 237 233 227 223 225 222 212 214 214 214 212 216 232 219 202 183 164 181 210 218 209 204 210 201 166 147 143 127 81
340 337 335 340 343 334 330 330 312 302 284 273 265 257 244 235 232 230 226 219 213 218 212 214 212 212 221 216 202 186 167 179 199 211 224 213 196 192 175 163 161 164 179
342 343 344 346 339 334 332 318 308 290 282 280 271 260 248 244 240 234 228 215 209 207 208 213 216 213 216 214 206 193 179 186 188 194 209 211 187 176 170 163 170 179 159
346 346 345 338 334 338 335 317 302 294 297 290 273 262 252 250 254 239 232 214 201 202 209 213 220 223 220 214 211 201 194 185 181 194 200 192 168 155 149 152 159 155 138
338 338 337 333 334 334 333 317 305 305 304 293 280 272 262 248 241 232 232 224 206 209 212 210 218 223 216 218 212 203 195 185 181 189 180 167 152 138 132 135 141 139 133
332 333 336 336 332 330 325 313 311 309 301 292 286 281 267 261 251 239 227 224 217 215 215 214 218 218 210 209 203 194 186 178 171 161 153 141 126 113 114 112 111 118 140
324 327 329 326 322 323 322 319 317 313 302 294 289 285 272 260 252 245 237 234 232 224 217 219 212 205 215 215 196 184 183 178 171 147 129 130 134 134 125 112 111 113 121
317 320 320 320 318 321 321 320 316 311 302 298 291 283 277 272 261 257 273 262 252 247 235 224 212 215 216 203 193 192 186 175 164 150 160 173 174 175 172 163 153 144 143
Height
1499 1501 1504 1506 1509 1511 1512 1514 1514 1515 1515 1515 1515 1515 1515 1514 1513 1512 1511 1510 1509 1508 1506 1505 1504 1503 1502 1501 1500 1500 1499 1499 1500 1500 1500 1501 1501 1502 1503 1504 1506 1507 1509
1496 1499 1501 1504 1506 1509 1510 1512 1513 1513 1514 1514 1514 1514 1514 1513 1513 1512 1511 1510 1509 1507 1506 1505 1504 1502 1501 1500 1500 1499 1499 1499 1499 1500 1500 1501 1502 1502 1502 1503 1504 1506 1507
1494 1496 1499 1501 1504 1506 1508 1510 1511 1512 1513 1513 1513 1513 1513 1512 1512 1511 1510 1509 1508 1507 1506 1504 1503 1502 1501 1500 1499 1499 1498 1498 1499 1499 1500 1500 1500 1501 1502 1502 1503 1504 1506
1492 1494 1496 1499 1501 1504 1507 1509 1510 1511 1512 1512 1512 1512 1512 1512 1511 1511 1510 1509 1508 1507 1506 1504 1503 1502 1501 1500 1499 1499 1498 1498 1498 1499 1499 1500 1500 1501 1501 1502 1502 1503 1504
1491 1492 1494 1497 1500 1503 1505 1507 1508 1509 1510 1511 1511 1511 1511 1511 1510 1510 1509 1508 1508 1507 1505 1504 1503 1502 1501 1500 1499 1498 1498 1498 1498 1498 1499 1499 1500 1500 1500 1500 1501 1502 1503
1489 1491 1493 1496 1498 1501 1503 1505 1507 1508 1509 1509 1510 1510 1510 1510 1509 1509 1509 1508 1507 1506 1505 1504 1503 1502 1501 1500 1499 1498 1498 1498 1498 1498 1498 1499 1499 1499 1500 1500 1500 1501 1502
1489 1490 1491 1493 1496 1498 1501 1503 1505 1506 1507 1508 1508 1508 1508 1509 1509 1508 1508 1507 1507 1506 1505 1504 1503 1502 1502 1501 1500 1499 1498 1497 1497 1498 1498 1498 1499 1499 1499 1500 1500 1500 1501
1488 1489 1490 1492 1494 1497 1499 1501 1503 1504 1505 1506 1507 1507 1507 1507 1507 1507 1507 1506 1506 1505 1505 1504 1503 1502 1501 1501 1500 1499 1498 1497 1497 1497 1497 1498 1498 1498 1499 1499 1500 1499 1500
1489 1489 1490 1491 1493 1495 1497 1499 1501 1502 1504 1504 1505 1505 1506 1506 1506 1506 1506 1506 1505 1505 1504 1504 1503 1502 1501 1500 1500 1499 1498 1497 1497 1497 1497 1497 1497 1498 1498 1498 1499 1500 1499
1489 1489 1489 1491 1492 1494 1496 1498 1499 1501 1502 1503 1503 1504 1504 1505 1505 1505 1505 1504 1504 1504 1503 1503 1502 1502 1501 1500 1499 1498 1498 1497 1497 1496 1496 1496 1496 1497 1497 1497 1498 1498 1499
1489 1489 1489 1490 1491 1493 1494 1496 1497 1498 1500 1500 1501 1502 1502 1503 1503 1503 1503 1503 1503 1502 1502 1502 1501 1501 1500 1500 1499 1498 1498 1497 1496 1496 1495 1495 1495 1495 1496 1496 1497 1497 1498
1490 1490 1489 1489 1490 1491 1492 1493 1495 1496 1497 1498 1499 1499 1500 1500 1500 1501 1501 1501 1501 1501 1500 1500 1500 1499 1499 1499 1498 1498 1497 1496 1496 1495 1494 1494 1494 1494 1495 1495 1495 1496 1496
1491 1490 1489 1489 1489 1489 1490 1491 1492 1493 1495 1495 1496 1496 1497 1497 1498 1498 1499 1499 1498 1498 1498 1498 1498 1498 1497 1497 1497 1496 1496 1495 1495 1494 1494 1493 1493 1493 1494 1494 1494 1494 1495
1492 1491 1490 1489 1488 1488 1488 1489 1489 1490 1491 1492 1492 1493 1493 1494 1495 1495 1496 1496 1496 1496 1496 1496 1495 1495 1495 1495 1495 1495 1494 1494 1493 1493 1493 1493 1492 1492 1492 1492 1493 1493 1493
1493 1492 1491 1489 1488 1487 1486 1486 1486 1487 1488 1488 1489 1489 1490 1491 1491 1492 1492 1493 1493 1493 1493 1493 1493 1493 1493 1493 1493 1492 1492 1492 1492 1491 1491 1491 1491 1491 1491 1491 1491 1491 1492
1495 1493 1491 1489 1487 1486 1484 1484 1483 1484 1484 1485 1485 1486 1486 1487 1487 1488 1489 1489 1489 1489 1489 1489 1489 1489 1490 1490 1490 1490 1489 1489 1489 1489 1489 1489 1489 1489 1489 1489 1490 1490 1490
1497 1495 1492 1489 1487 1485 1484 1482 1481 1481 1481 1481 1482 1482 1482 1483 1483 1484 1484 1485 1485 1485 1485 1486 1486 1486 1486 1486 1486 1486 1486 1486 1486 1486 1486 1486 1487 1487 1487 1488 1488 1488 1488
1498 1495 1492 1489 1487 1484 1482 1481 1480 1479 1478 1478 1478 1478 1478 1478 1479 1479 1479 1480 1480 1481 1481 1481 1482 1482 1482 1483 1483 1483 1483 1483 1483 1483 1483 1484 1484 1484 1485 1485 1485 1486 1486
1499 1496 1492 1489 1486 1483 1480 1479 1477 1476 1475 1474 1474 1474 1474 1474 1474 1474 1474 1475 1475 1475 1476 1476 1477 1477 1478 1479 1479 1479 1479 1479 1479 1480 1480 1480 1481 1481 1482 1483 1483 1483 1484
1498 1495 1491 1488 1484 1481 1478 1477 1475 1473 1472 1471 1470 1470 1470 1469 1469 1469 1469 1470 1470 1470 1471 1471 1472 1473 1473 1474 1475 1475 1475 1475 1476 1476 1476 1477 1477 1478 1479 1480 1480 1481 1481
1497 1494 1490 1487 1483 1480 1477 1475 1473 1471 1469 1468 1467 1466 1465 1464 1464 1464 1464 1464 1464 1464 1465 1465 1466 1467 1468 1469 1470 1470 1471 1471 1472 1472 1473 1473 1474 1475 1475 1476 1477 1478 1478
1495 1492 1489 1485 1482 1479 1476 1472 1470 1468 1466 1464 1462 1461 1460 1459 1459 1458 1458 1458 1458 1458 1458 1459 1460 1461 1463 1464 1465 1466 1466 1467 1468 1468 1469 1470 1471 1471 1472 1473 1474 1475 1475
1494 1490 1487 1483 1480 1477 1474 1470 1467 1464 1461 1459 1457 1455 1454 1454 1453 1452 1452 1451 1451 1451 1452 1453 1454 1455 1457 1458 1460 1461 1462 1462 1464 1465 1466 1467 1468 1468 1469 1470 1471 1471 1472
1491 1488 1484 1480 1477 1474 1471 1467 1463 1460 1457 1454 1452 1450 1448 1447 1446 1446 1446 1445 1445 1445 1445 1446 1447 1449 1451 1452 1454 1455 1457 1458 1459 1461 1462 1463 1464 1465 1466 1467 1468 1468 1469
1488 1485 1482 1478 1474 1470 1467 1463 1459 1456 1452 1449 1447 1445 1443 1441 1440 1439 1439 1438 1438 1439 1439 1439 1441 1442 1443 1446 1448 1450 1451 1453 1455 1457 1458 1459 1460 1461 1462 1463 1464 1465 1466
1485 1481 1478 1474 1470 1466 1463 1459 1455 1451 1448 1444 1442 1439 1437 1435 1434 1432 1431 1431 1432 1432 1432 1433 1435 1435 1438 1440 1442 1444 1446 1448 1450 1452 1453 1455 1456 1457 1458 1460 1461 1462 1463